EHI
0 0 0 1 21 57 71 56 39 32 40 56 71 79 82 76 59 34 16 7 2 1 0 0 0 0 0 0 0 0 0 0 0 0 0 0 0 0 0 0 0 0 0
0 0 0 1 19 52 67 56 38 25 24 33 45 53 55 50 36 19 8 4 1 0 0 0 0 0 0 0 0 0 0 0 0 0 0 0 0 0 0 0 0 0 0
0 0 0 2 17 42 58 50 33 17 9 9 13 17 19 17 10 4 1 1 0 0 0 0 0 0 0 0 0 0 0 0 0 0 0 0 0 0 0 0 0 0 0
2 1 1 4 15 33 43 39 26 12 4 1 0 1 2 2 1 0 0 0 0 0 0 0 0 0 0 0 0 0 0 0 0 0 0 0 0 0 0 0 0 0 0
3 1 1 4 14 28 35 31 22 10 3 1 0 0 0 0 0 0 0 0 0 0 0 0 0 0 0 0 0 0 0 0 0 0 1 0 0 0 0 0 0 0 0
2 1 0 3 17 34 41 36 26 14 5 1 0 0 0 0 0 0 0 0 0 0 0 0 0 1 1 0 0 0 0 0 0 0 0 0 0 0 0 0 0 0 0
1 0 0 4 22 45 53 48 39 25 13 7 4 2 1 0 0 0 0 0 0 0 0 0 1 2 1 0 0 0 0 0 0 0 0 0 0 0 0 0 0 0 0
0 0 1 5 22 46 58 56 49 38 25 16 10 5 1 0 0 0 0 0 0 0 0 0 1 1 1 0 0 0 0 0 0 0 0 0 0 0 0 0 0 0 0
1 1 1 3 14 33 46 49 47 40 30 21 13 6 2 1 1 1 1 1 1 1 1 1 1 0 0 0 0 0 0 0 0 0 0 0 0 0 0 0 0 0 0
0 1 2 2 6 14 22 30 32 29 23 17 10 5 2 2 2 2 2 2 2 2 1 1 0 0 0 0 0 0 0 0 0 0 0 0 0 0 0 0 0 0 0
1 2 2 2 2 2 5 10 14 13 11 8 5 3 2 1 1 1 2 2 1 1 1 0 0 0 0 0 0 0 0 0 0 0 0 0 0 0 0 0 0 0 0
3 3 2 1 0 0 0 1 3 3 3 2 1 1 1 0 0 0 1 1 0 0 0 0 0 0 0 0 0 0 0 0 0 0 0 0 0 0 0 0 0 0 0
3 2 1 0 0 0 0 0 0 0 0 0 0 0 0 0 0 0 0 0 0 0 0 0 0 0 0 0 0 0 0 0 0 0 0 0 0 0 0 0 1 1 1
1 1 0 0 0 0 0 0 0 0 0 0 0 0 0 0 0 0 0 0 0 0 0 0 0 0 0 0 0 0 0 0 0 0 0 0 0 1 1 2 3 4 3
0 0 0 0 0 0 0 0 0 0 0 0 0 0 0 0 0 0 0 0 0 0 0 0 0 0 0 0 0 0 0 0 0 0 0 0 0 1 1 2 4 4 4
0 0 0 0 0 0 0 0 0 0 0 0 0 0 0 0 0 0 0 0 0 0 0 0 0 0 0 0 0 0 0 0 0 0 0 0 0 0 1 2 2 3 3
0 0 0 0 0 0 0 0 0 0 0 0 0 0 0 0 0 0 0 0 0 0 0 0 0 0 0 0 0 0 0 0 0 0 0 0 0 0 1 1 2 2 3
0 0 0 0 0 0 0 0 0 0 0 0 0 0 0 0 0 0 0 0 0 0 0 0 0 0 0 0 0 0 0 0 0 0 0 0 0 0 0 1 1 1 1
0 0 0 0 0 0 0 0 0 0 0 0 0 0 0 0 0 0 0 0 0 0 0 0 0 0 0 0 0 0 0 0 0 0 0 0 0 0 0 0 0 0 0
0 0 0 0 0 0 0 0 0 0 0 0 0 0 0 0 0 0 0 0 0 0 0 0 0 0 0 0 0 0 0 0 0 0 0 0 0 0 0 0 0 0 0
0 0 0 0 0 0 0 0 0 0 0 0 0 0 0 0 0 0 0 0 0 0 0 0 0 0 0 0 0 0 0 0 0 0 0 0 0 0 0 0 0 0 0
0 0 0 0 0 0 0 0 0 0 0 0 0 0 0 0 0 0 0 0 0 0 0 0 0 0 0 0 0 0 0 0 0 0 0 0 0 0 0 0 0 0 0
0 0 0 0 0 0 0 0 0 0 0 0 0 0 0 0 0 0 0 0 0 0 0 0 0 0 0 0 0 0 0 0 0 0 0 0 0 0 0 0 0 0 0
0 0 0 0 0 0 0 0 0 0 0 0 0 0 0 0 0 0 0 0 0 0 0 0 0 0 0 0 0 0 0 0 0 0 0 0 0 0 0 0 0 0 0
0 0 0 0 0 0 0 0 0 0 0 0 0 0 0 0 0 0 0 0 0 0 0 0 0 0 0 0 0 0 0 0 0 0 0 0 0 0 0 0 0 0 0
0 0 0 0 0 0 0 0 0 0 0 0 0 0 0 0 0 0 0 0 0 0 0 0 0 0 0 0 0 0 0 0 0 0 0 0 0 0 0 0 0 0 0
Wind_Speed
4 6 8 10 11 13 14 15 14 13 13 13 13 13 13 12 11 10 10 9 8 7 7 7 6 7 7 7 7 7 6 5 5 7 8 9 9 10 10 11 10 8 10
7 7 8 9 10 12 14 14 14 13 12 12 12 12 11 11 10 9 9 8 7 7 7 6 5 5 5 5 5 5 4 3 2 2 5 7 8 8 9 10 10 6 10
8 7 7 9 10 11 12 13 13 13 12 12 11 10 10 9 8 8 8 7 7 6 6 5 4 3 4 5 5 5 4 4 4 3 2 2 4 7 7 8 9 10 10
9 6 6 9 9 11 11 12 12 12 12 11 10 9 9 8 7 6 6 6 6 5 5 4 3 3 4 4 5 5 5 6 6 5 2 1 2 5 6 6 7 9 10
7 5 6 10 10 10 11 11 11 11 11 10 9 8 7 6 5 4 4 4 4 3 3 2 2 2 3 4 5 5 5 5 5 5 3 2 0 3 3 4 5 8 9
7 5 6 10 10 10 11 10 10 10 9 9 8 7 6 5 4 3 3 2 2 1 1 1 1 2 2 4 5 5 5 5 4 3 3 3 2 1 2 2 3 4 7
7 5 6 9 10 11 11 11 10 9 8 7 7 6 5 5 3 2 1 1 0 1 1 1 2 2 3 4 5 6 6 5 3 2 2 2 2 1 2 2 2 3 4
7 5 5 9 11 11 11 10 9 8 7 6 6 6 5 4 3 2 1 0 0 1 1 1 2 3 4 5 5 6 6 4 2 1 1 1 1 1 2 2 2 3 3
6 5 4 4 7 10 10 10 9 8 7 6 6 5 4 3 2 1 1 0 0 0 1 1 2 3 4 5 5 6 6 5 3 1 1 1 3 3 3 3 3 4 4
5 4 4 3 4 4 5 10 10 9 8 7 6 5 4 3 2 2 0 1 1 1 1 2 2 3 4 5 6 7 7 5 3 2 2 2 5 5 5 5 5 5 4
6 4 4 4 3 3 4 6 7 8 7 6 4 4 3 1 1 1 1 2 2 2 2 3 4 4 5 6 7 7 6 2 2 2 2 5 6 7 7 7 7 6 5
8 7 6 6 5 4 4 3 3 3 3 2 1 1 1 1 1 1 3 3 3 4 4 5 6 6 5 3 5 6 2 3 2 2 2 6 6 7 8 7 8 7 7
9 8 7 6 5 5 3 3 2 2 2 2 2 1 1 1 1 1 1 3 4 4 3 5 5 3 3 3 2 2 3 2 2 2 3 7 7 7 7 7 7 8 8
8 7 5 5 4 3 3 2 2 2 2 1 1 1 1 1 1 0 0 1 1 1 2 2 2 3 4 4 3 3 3 2 2 2 4 9 9 9 9 9 8 8 8
7 5 3 3 3 3 2 2 2 2 2 1 1 0 2 2 1 0 0 1 1 1 1 2 2 3 3 4 4 4 4 4 4 3 3 9 11 11 11 11 12 12 12
6 4 2 2 2 3 2 2 2 1 2 2 2 2 1 1 1 1 1 1 1 1 1 1 1 1 2 2 3 3 3 3 4 4 4 5 10 11 12 13 13 14 14
4 3 2 3 3 4 3 3 3 3 4 4 3 4 4 3 3 3 3 2 2 2 2 2 3 2 2 3 3 3 3 3 4 4 3 3 4 8 11 12 13 14 15
4 4 3 4 6 6 6 6 5 5 6 5 4 4 6 5 5 4 4 3 3 3 3 3 3 3 3 3 3 2 2 2 3 3 3 3 3 4 7 11 12 14 15
5 5 5 6 7 8 8 7 8 7 7 5 5 5 6 7 6 5 4 4 4 4 4 3 3 3 3 3 3 2 2 3 3 3 2 3 3 3 3 7 12 13 14
6 6 7 7 7 7 7 7 7 8 6 6 6 6 7 6 7 5 5 5 4 4 4 3 3 3 2 3 4 4 4 4 3 2 1 2 3 5 5 6 5 8 14
7 7 6 7 5 4 4 4 5 5 4 5 6 7 7 7 7 6 4 4 4 4 3 3 2 2 2 3 3 4 3 3 3 2 1 3 5 5 6 6 5 5 7
7 8 7 7 6 5 4 4 4 5 5 4 5 7 7 7 6 6 5 4 3 3 4 3 3 2 2 2 2 3 4 3 2 2 3 4 5 5 7 9 8 8 8
8 8 8 8 8 8 7 6 6 4 4 4 5 4 6 6 6 5 5 4 4 3 2 2 2 1 2 2 1 2 3 4 4 3 3 4 5 6 8 8 10 9 10
8 8 10 10 9 8 7 7 7 5 4 3 2 3 4 5 5 5 4 4 3 2 2 3 2 1 1 2 2 2 3 4 5 6 4 5 8 9 10 9 10 11 11
9 9 9 10 10 8 8 8 8 7 4 2 2 4 4 4 5 5 4 4 3 2 3 3 3 2 1 2 2 2 3 3 5 6 9 8 8 8 9 10 9 9 10
8 8 8 10 9 7 8 8 8 7 5 4 3 3 3 2 3 5 4 3 3 2 2 2 2 3 2 2 2 2 3 4 5 6 9 11 11 10 10 9 9 9 9
Wind_Direction
148 141 157 156 151 135 129 126 123 117 111 104 100 98 98 99 102 107 112 114 117 120 118 114 107 103 104 105 105 104 103 107 122 133 139 145 150 154 157 154 147 147 151
135 133 149 155 153 138 133 130 128 125 121 116 110 107 107 108 111 116 120 122 125 129 127 119 108 99 94 91 88 84 79 71 76 154 166 162 164 167 170 167 161 161 162
122 122 139 150 152 141 135 132 131 130 128 125 122 119 118 117 118 123 129 131 134 136 134 128 113 91 73 64 58 50 39 18 350 318 253 197 183 180 179 178 172 172 171
119 117 135 148 148 141 135 133 134 134 133 132 131 130 128 126 123 126 131 136 139 140 140 134 114 78 51 38 30 22 13 4 356 3 10 314 223 193 188 188 185 185 183
111 116 144 147 144 139 136 134 135 137 137 136 137 137 135 130 122 123 134 139 141 142 142 138 114 70 36 17 13 11 8 6 18 33 21 31 53 198 194 199 197 199 198
121 126 147 145 142 139 139 138 140 142 142 141 140 139 136 131 126 131 145 152 158 174 185 166 104 58 26 9 10 12 7 14 42 58 41 40 49 159 159 184 186 196 206
124 127 142 143 140 140 143 144 145 145 144 141 139 136 131 126 125 130 158 179 247 296 309 341 43 43 30 22 13 7 3 17 66 77 71 52 32 47 143 152 154 164 175
125 126 137 146 143 142 145 146 146 146 145 142 139 136 134 132 130 127 139 235 306 339 346 9 34 39 34 22 11 6 7 11 50 50 25 16 304 288 183 168 163 162 153
121 121 120 135 143 146 147 147 148 149 149 148 147 146 147 151 164 199 230 252 57 69 35 29 30 25 23 17 9 5 7 9 34 343 290 278 271 259 225 209 202 190 181
115 115 123 125 129 137 147 155 156 157 157 159 164 170 177 190 215 244 256 332 343 349 348 2 7 5 9 10 8 8 10 18 15 334 315 285 272 258 246 237 232 226 218
140 142 144 142 145 144 150 164 161 165 167 167 177 192 176 82 20 354 320 303 312 324 332 338 343 346 360 7 7 11 16 8 346 322 300 287 279 261 252 244 242 243 240
167 176 173 171 167 164 166 144 139 139 142 141 143 145 107 89 359 343 334 319 323 335 342 344 345 353 7 8 3 13 10 353 345 322 308 304 288 270 261 255 250 253 256
181 184 181 181 171 166 158 142 133 123 126 138 154 155 119 89 6 4 7 355 2 7 7 355 358 2 0 360 3 8 8 8 356 339 335 339 326 301 284 277 270 267 267
189 189 182 179 163 165 149 145 148 143 143 149 166 173 166 186 227 272 356 356 10 8 351 349 349 355 2 4 4 8 20 24 14 359 354 3 359 344 324 311 304 295 288
194 187 186 155 151 157 146 146 146 156 142 134 122 187 198 207 225 228 2 15 9 17 7 355 359 6 11 10 11 22 26 26 24 19 5 12 12 6 355 343 332 324 313
188 177 145 117 132 128 125 122 108 101 95 83 62 33 68 147 146 116 74 45 33 42 57 62 50 48 38 22 15 19 27 26 23 22 22 16 15 8 2 355 345 335 324
162 129 92 110 94 96 95 90 82 77 80 73 62 52 62 79 95 98 86 66 54 69 78 74 66 64 50 26 9 5 22 17 11 11 14 13 5 5 0 352 343 336 330
112 90 65 81 84 86 88 85 80 77 78 73 64 59 61 70 82 84 78 64 54 61 65 72 53 55 40 15 345 332 352 347 344 339 357 10 6 359 351 347 341 335 328
96 89 78 80 88 92 91 88 84 79 74 68 62 59 57 62 68 75 70 56 49 51 42 45 47 46 29 357 321 299 315 302 293 316 348 16 358 334 324 332 331 325 320
87 87 88 87 92 99 96 90 83 72 65 60 56 52 52 55 58 65 65 55 54 56 44 39 46 41 23 338 320 311 288 275 263 250 322 351 319 307 308 310 311 311 314
80 82 81 88 87 94 93 91 85 74 62 57 56 52 53 56 58 60 63 56 54 59 49 37 28 15 2 348 338 318 296 278 272 220 297 316 306 305 303 303 302 303 303
88 83 78 74 68 60 70 80 87 92 76 66 53 48 46 50 48 60 59 54 48 51 41 29 29 9 343 12 354 317 318 315 319 285 296 296 307 311 309 310 309 300 298
88 86 85 75 70 64 71 83 84 72 62 44 36 34 30 42 49 54 53 50 41 42 32 11 18 16 315 310 294 278 298 295 308 282 288 298 304 305 302 305 301 300 298
96 91 86 82 77 72 75 85 87 88 83 59 41 35 27 32 39 45 45 41 35 25 9 343 15 342 306 302 309 281 263 277 291 299 286 289 297 299 299 298 299 297 293
102 96 92 88 81 77 80 88 92 90 92 84 57 46 32 20 24 28 34 27 18 5 353 345 347 349 337 305 303 304 295 284 255 279 295 296 295 289 292 293 290 288 288
103 96 94 91 82 78 82 84 96 103 104 92 64 45 22 2 2 10 15 14 3 355 349 352 2 16 15 343 317 296 289 288 289 285 291 296 295 293 291 288 284 281 280